MDT,Max TemperatureF,Mean TemperatureF,Min TemperatureF,Max Dew PointF,MeanDew PointF,Min DewpointF,Max Humidity, Mean Humidity, Min Humidity, Max Sea Level PressureIn, Mean Sea Level PressureIn, Min Sea Level PressureIn, Max VisibilityMiles, Mean VisibilityMiles, Min VisibilityMiles, Max Wind SpeedMPH, Mean Wind SpeedMPH, Max Gust SpeedMPH,PrecipitationIn, CloudCover, Events, WindDirDegrees
2012-9-1,96,76,56,46,38,33,60,30,12,30.00,29.93,29.84,10,10,8,23,13,31,0.00,0,,173
2012-9-2,92,76,59,52,43,36,48,31,19,29.93,29.88,29.82,10,10,10,20,11,30,0.00,0,,19
2012-9-3,86,75,64,62,51,45,71,46,25,30.00,29.92,29.86,10,10,9,18,8,26,0.02,2,,262
2012-9-4,95,76,57,57,46,31,72,39,11,30.01,29.86,29.77,10,10,9,14,8,20,0.11,1,Rain-Thunderstorm,254
2012-9-5,84,69,54,49,37,31,80,36,17,30.05,29.95,29.83,10,10,10,17,12,28,0.00,0,,31
2012-9-6,96,76,56,48,35,19,69,31,7,29.95,29.85,29.76,10,10,10,14,9,23,0.00,0,,237
2012-9-7,74,60,46,52,43,36,77,50,36,30.28,30.09,29.82,10,10,6,25,16,36,0.00,2,,14
2012-9-8,82,63,44,45,36,30,82,44,17,30.31,30.21,30.12,10,10,8,12,7,18,0.00,0,,305
2012-9-9,86,65,44,39,33,29,59,36,14,30.22,30.11,29.99,10,10,10,18,10,26,0.00,0,,176
2012-9-10,93,72,51,45,34,20,49,28,7,29.96,29.86,29.77,10,10,10,20,15,24,0.00,0,,188
2012-9-11,96,73,49,46,39,32,71,33,12,29.80,29.72,29.65,10,10,8,25,10,38,0.00,0,,153
2012-9-12,67,59,50,52,45,32,96,74,30,30.40,30.18,29.77,10,8,2,32,19,38,0.17,6,Rain,22
2012-9-13,68,56,44,49,44,34,96,75,28,30.51,30.42,30.35,10,8,1,13,8,,0.00,4,,48
2012-9-14,78,60,41,42,38,35,86,49,23,30.42,30.32,30.24,10,10,10,15,9,,0.00,0,,203
2012-9-15,81,62,43,37,32,29,63,33,15,30.22,30.10,30.02,10,10,10,15,11,22,0.00,0,,202
2012-9-16,91,67,42,35,28,19,63,29,7,30.01,29.91,29.81,10,10,8,20,11,25,0.00,0,,206
2012-9-17,64,53,42,41,38,35,74,56,38,30.16,30.05,29.85,10,10,10,20,14,28,T,1,,359
2012-9-18,81,62,42,41,35,31,76,42,17,30.15,30.03,29.94,10,10,8,15,9,26,0.00,0,,279
2012-9-19,88,68,48,32,30,27,52,28,12,30.03,29.97,29.91,10,10,7,20,11,28,0.00,0,,341
2012-9-20,85,64,43,34,30,27,60,32,13,30.06,30.00,29.94,10,10,5,21,9,29,0.00,0,,241
2012-9-21,83,64,45,33,31,28,48,31,16,30.06,30.02,29.97,10,10,9,15,9,25,0.00,0,,318
2012-9-22,74,59,43,32,31,30,58,37,21,30.26,30.17,30.06,10,10,10,14,9,22,0.00,0,,115
2012-9-23,75,60,44,37,33,29,61,40,24,30.18,30.11,30.02,10,10,10,24,14,31,0.00,0,,167
2012-9-24,87,66,44,40,38,35,73,41,18,30.01,29.89,29.79,10,10,10,16,9,22,0.00,0,,279
2012-9-25,79,61,43,48,42,34,71,50,30,29.91,29.83,29.78,10,10,10,18,8,21,0.00,2,,92
2012-9-26,74,65,55,55,52,46,94,72,38,30.21,30.05,29.90,10,10,8,23,9,30,0.12,6,Rain-Thunderstorm,80
2012-9-27,66,60,53,55,54,52,100,88,67,30.25,30.16,30.04,10,8,0,13,7,,0.38,7,Fog-Rain-Thunderstorm,135
2012-9-28,69,61,53,55,53,50,100,88,52,30.24,30.16,30.05,10,8,2,16,5,,0.00,6,,17
2012-9-29,71,62,52,56,54,52,100,83,54,30.21,30.12,30.00,10,8,2,15,9,20,0.00,5,,178
2012-9-30,82,66,50,52,46,37,96,58,20,30.05,29.98,29.90,10,9,6,21,10,34,0.07,2,Rain-Thunderstorm,336